| time (UTC) | temp F | wind direction | speed MPH | gust MPH | rain 1hr in | rain 24hr in | rain mn in | humidity % | barometer mb |
| 20260508050012 | 43 | 5 | 0.0 | 0.0 | 0.00 | 0.02 | 0.00 | 91 | 1016.7 |
| 20260508045516 | 43 | 5 | 0.0 | 0.0 | 0.00 | 0.02 | 0.02 | 91 | 1016.8 |
| 20260508045010 | 43 | 5 | 0.0 | 0.0 | 0.00 | 0.02 | 0.02 | 91 | 1016.7 |
| 20260508044009 | 43 | 5 | 0.0 | 0.0 | 0.00 | 0.02 | 0.02 | 91 | 1016.9 |
| 20260508043514 | 43 | 5 | 0.0 | 0.0 | 0.00 | 0.02 | 0.02 | 91 | 1017.0 |
| 20260508043009 | 44 | 5 | 0.0 | 0.0 | 0.00 | 0.02 | 0.02 | 90 | 1017.1 |
| 20260508042511 | 44 | 5 | 0.0 | 0.0 | 0.00 | 0.02 | 0.02 | 90 | 1017.1 |
| 20260508042010 | 44 | 5 | 0.0 | 0.0 | 0.00 | 0.02 | 0.02 | 90 | 1017.1 |
| 20260508041507 | 44 | 5 | 0.0 | 0.0 | 0.00 | 0.02 | 0.02 | 90 | 1017.1 |
| 20260508041007 | 44 | 5 | 0.0 | 0.0 | 0.00 | 0.02 | 0.02 | 90 | 1017.0 |
| 20260508040509 | 44 | 5 | 0.0 | 0.0 | 0.00 | 0.02 | 0.02 | 90 | 1016.9 |
| 20260508040009 | 44 | 5 | 0.0 | 0.0 | 0.00 | 0.02 | 0.02 | 90 | 1016.7 |
| 20260508035505 | 44 | 5 | 0.0 | 0.0 | 0.00 | 0.02 | 0.02 | 90 | 1016.8 |
| 20260508035004 | 44 | 5 | 0.0 | 0.0 | 0.00 | 0.02 | 0.02 | 89 | 1016.7 |
| 20260508034506 | 45 | 5 | 0.0 | 0.0 | 0.00 | 0.02 | 0.02 | 89 | 1016.7 |
| 20260508034004 | 45 | 5 | 0.0 | 0.0 | 0.00 | 0.02 | 0.02 | 89 | 1016.7 |
| 20260508033505 | 45 | 5 | 0.0 | 0.0 | 0.00 | 0.02 | 0.02 | 89 | 1016.6 |
| 20260508033001 | 45 | 5 | 0.0 | 0.0 | 0.00 | 0.02 | 0.02 | 89 | 1016.6 |
| 20260508032501 | 45 | 5 | 0.0 | 0.0 | 0.00 | 0.02 | 0.02 | 89 | 1016.6 |
| 20260508032103 | 45 | 5 | 0.0 | 0.0 | 0.00 | 0.02 | 0.02 | 88 | 1016.6 |
| 20260508031600 | 46 | 5 | 0.0 | 0.0 | 0.00 | 0.02 | 0.02 | 88 | 1016.7 |
| 20260508031100 | 46 | 5 | 0.0 | 0.0 | 0.00 | 0.02 | 0.02 | 87 | 1016.8 |
| 20260508030559 | 46 | 5 | 0.0 | 0.0 | 0.00 | 0.02 | 0.02 | 87 | 1016.7 |
| 20260508030058 | 46 | 5 | 0.0 | 0.0 | 0.00 | 0.02 | 0.02 | 86 | 1016.8 |
| 20260508025557 | 46 | 5 | 0.0 | 0.0 | 0.00 | 0.04 | 0.02 | 86 | 1016.6 |
| 20260508025057 | 46 | 5 | 0.0 | 0.0 | 0.00 | 0.04 | 0.02 | 86 | 1016.6 |
| 20260508024559 | 46 | 5 | 0.0 | 0.0 | 0.00 | 0.04 | 0.02 | 86 | 1016.6 |
| 20260508024055 | 47 | 5 | 0.0 | 0.0 | 0.00 | 0.04 | 0.02 | 86 | 1016.4 |
| 20260508023554 | 47 | 5 | 0.0 | 0.0 | 0.00 | 0.04 | 0.02 | 85 | 1016.6 |
| 20260508023056 | 47 | 5 | 0.0 | 0.0 | 0.00 | 0.04 | 0.02 | 85 | 1016.5 |
| 20260508022554 | 47 | 5 | 0.0 | 0.0 | 0.00 | 0.04 | 0.02 | 84 | 1016.6 |
| 20260508022053 | 47 | 5 | 0.0 | 0.0 | 0.00 | 0.04 | 0.02 | 84 | 1016.5 |
| 20260508021553 | 47 | 5 | 0.0 | 0.0 | 0.00 | 0.04 | 0.02 | 83 | 1016.5 |
| 20260508021051 | 48 | 5 | 0.0 | 0.0 | 0.00 | 0.04 | 0.02 | 83 | 1016.4 |
| 20260508020554 | 48 | 5 | 0.0 | 0.0 | 0.00 | 0.04 | 0.02 | 82 | 1016.5 |
| 20260508020053 | 48 | 5 | 0.0 | 0.0 | 0.00 | 0.04 | 0.02 | 82 | 1016.4 |
| 20260508015550 | 48 | 5 | 0.0 | 0.0 | 0.00 | 0.04 | 0.02 | 82 | 1016.3 |
| 20260508015053 | 48 | 5 | 0.0 | 0.0 | 0.00 | 0.04 | 0.02 | 82 | 1016.2 |
| 20260508014547 | 49 | 5 | 0.0 | 0.0 | 0.00 | 0.04 | 0.02 | 82 | 1016.0 |
| 20260508014046 | 49 | 5 | 0.0 | 0.0 | 0.00 | 0.04 | 0.02 | 81 | 1015.9 |
| 20260508013548 | 49 | 5 | 0.0 | 0.0 | 0.00 | 0.04 | 0.02 | 82 | 1015.7 |
| 20260508013045 | 49 | 5 | 0.0 | 0.0 | 0.00 | 0.04 | 0.02 | 81 | 1015.4 |
| 20260508012543 | 50 | 5 | 0.0 | 0.0 | 0.00 | 0.04 | 0.02 | 80 | 1015.4 |
| 20260508012043 | 50 | 5 | 0.0 | 0.0 | 0.00 | 0.04 | 0.02 | 79 | 1015.6 |
| 20260508011543 | 50 | 5 | 0.0 | 0.0 | 0.00 | 0.04 | 0.02 | 77 | 1015.4 |
| 20260508011043 | 51 | 5 | 0.0 | 0.0 | 0.00 | 0.04 | 0.02 | 75 | 1015.5 |
| 20260508010543 | 51 | 5 | 0.0 | 0.0 | 0.00 | 0.04 | 0.02 | 74 | 1015.4 |
| 20260508010043 | 51 | 5 | 0.0 | 1.0 | 0.00 | 0.04 | 0.02 | 72 | 1015.3 |
| 20260508005542 | 52 | 5 | 0.0 | 1.0 | 0.00 | 0.04 | 0.02 | 71 | 1015.3 |
| 20260508005043 | 53 | 38 | 0.0 | 1.0 | 0.00 | 0.04 | 0.02 | 70 | 1015.1 |
| 20260508004545 | 53 | 5 | 0.0 | 1.0 | 0.00 | 0.04 | 0.02 | 68 | 1015.2 |
| 20260508004043 | 54 | 5 | 0.0 | 1.0 | 0.00 | 0.04 | 0.02 | 66 | 1015.1 |
| 20260508003542 | 54 | 5 | 0.0 | 1.0 | 0.00 | 0.04 | 0.02 | 65 | 1014.9 |
| 20260508003042 | 54 | 5 | 0.0 | 0.0 | 0.00 | 0.04 | 0.02 | 66 | 1014.9 |
| 20260508002542 | 55 | 5 | 0.0 | 0.0 | 0.00 | 0.04 | 0.02 | 66 | 1014.8 |
| 20260508002041 | 56 | 5 | 0.0 | 1.0 | 0.00 | 0.04 | 0.02 | 63 | 1014.8 |
| 20260508001541 | 56 | 5 | 0.0 | 1.0 | 0.00 | 0.04 | 0.02 | 62 | 1014.7 |
| 20260508001041 | 57 | 5 | 0.0 | 1.0 | 0.00 | 0.04 | 0.02 | 62 | 1014.7 |
| 20260508000542 | 57 | 5 | 0.0 | 2.0 | 0.00 | 0.04 | 0.02 | 60 | 1014.8 |
| 20260508000040 | 58 | 5 | 0.0 | 3.0 | 0.00 | 0.04 | 0.02 | 56 | 1014.7 |
| 20260507235541 | 59 | 338 | 0.0 | 4.0 | 0.00 | 0.07 | 0.02 | 54 | 1014.7 |
| 20260507235041 | 59 | 66 | 0.0 | 6.0 | 0.00 | 0.07 | 0.02 | 54 | 1014.7 |
| 20260507234540 | 59 | 296 | 1.0 | 7.0 | 0.00 | 0.07 | 0.02 | 56 | 1014.5 |
| 20260507234039 | 59 | 88 | 0.0 | 4.0 | 0.00 | 0.07 | 0.02 | 55 | 1014.4 |
| 20260507233542 | 60 | 77 | 1.0 | 4.0 | 0.00 | 0.07 | 0.02 | 55 | 1014.4 |
| 20260507233040 | 60 | 58 | 1.0 | 4.0 | 0.00 | 0.07 | 0.02 | 52 | 1014.5 |
| 20260507232539 | 61 | 72 | 1.0 | 3.0 | 0.00 | 0.07 | 0.02 | 56 | 1014.3 |
| 20260507232038 | 61 | 51 | 0.0 | 4.0 | 0.00 | 0.07 | 0.02 | 53 | 1014.2 |
| 20260507231545 | 61 | 65 | 0.0 | 4.0 | 0.00 | 0.07 | 0.02 | 50 | 1014.3 |
| 20260507231038 | 62 | 55 | 0.0 | 3.0 | 0.00 | 0.07 | 0.02 | 51 | 1014.3 |
| 20260507230539 | 62 | 71 | 1.0 | 9.0 | 0.00 | 0.07 | 0.02 | 50 | 1014.4 |
| 20260507230038 | 62 | 94 | 2.0 | 9.0 | 0.00 | 0.07 | 0.02 | 51 | 1014.3 |
| 20260507225538 | 62 | 71 | 0.0 | 5.0 | 0.00 | 0.07 | 0.02 | 50 | 1014.6 |
| 20260507225041 | 63 | 90 | 1.0 | 6.0 | 0.00 | 0.07 | 0.02 | 49 | 1014.6 |
| 20260507224538 | 63 | 286 | 2.0 | 6.0 | 0.00 | 0.07 | 0.02 | 49 | 1014.7 |
| 20260507224040 | 63 | 351 | 0.0 | 6.0 | 0.00 | 0.07 | 0.02 | 51 | 1014.7 |
| 20260507223540 | 63 | 57 | 1.0 | 5.0 | 0.00 | 0.07 | 0.02 | 50 | 1014.6 |
| 20260507223037 | 64 | 257 | 2.0 | 7.0 | 0.00 | 0.07 | 0.02 | 51 | 1014.6 |
| 20260507222537 | 64 | 261 | 2.0 | 7.0 | 0.00 | 0.07 | 0.02 | 50 | 1014.6 |
| 20260507222037 | 64 | 41 | 2.0 | 4.0 | 0.00 | 0.07 | 0.02 | 49 | 1014.7 |
| 20260507221536 | 64 | 262 | 1.0 | 4.0 | 0.00 | 0.07 | 0.02 | 49 | 1014.6 |
| 20260507221035 | 64 | 295 | 0.0 | 5.0 | 0.00 | 0.07 | 0.02 | 49 | 1014.6 |
| 20260507220535 | 64 | 289 | 2.0 | 5.0 | 0.00 | 0.07 | 0.02 | 49 | 1014.6 |
| 20260507220036 | 64 | 67 | 1.0 | 8.0 | 0.00 | 0.07 | 0.02 | 51 | 1014.5 |
| 20260507215536 | 64 | 289 | 3.0 | 8.0 | 0.00 | 0.07 | 0.02 | 49 | 1014.7 |
| 20260507215036 | 64 | 277 | 1.0 | 5.0 | 0.00 | 0.07 | 0.02 | 49 | 1014.6 |
| 20260507214543 | 64 | 355 | 1.0 | 5.0 | 0.00 | 0.07 | 0.02 | 49 | 1014.5 |
| 20260507214033 | 64 | 63 | 2.0 | 9.0 | 0.00 | 0.07 | 0.02 | 53 | 1014.7 |
| 20260507213531 | 64 | 20 | 3.0 | 9.0 | 0.00 | 0.07 | 0.02 | 50 | 1014.7 |
| 20260507213032 | 63 | 305 | 1.0 | 5.0 | 0.00 | 0.07 | 0.02 | 50 | 1014.7 |
| 20260507212531 | 63 | 221 | 1.0 | 5.0 | 0.00 | 0.07 | 0.02 | 55 | 1014.6 |
| 20260507212030 | 64 | 144 | 1.0 | 5.0 | 0.00 | 0.07 | 0.02 | 49 | 1014.4 |
| 20260507211531 | 64 | 249 | 2.0 | 6.0 | 0.00 | 0.07 | 0.02 | 49 | 1014.3 |
| 20260507211030 | 64 | 53 | 2.0 | 6.0 | 0.00 | 0.07 | 0.02 | 51 | 1014.3 |
| 20260507210532 | 64 | 61 | 3.0 | 7.0 | 0.00 | 0.07 | 0.02 | 52 | 1014.2 |
| 20260507210046 | 64 | 281 | 3.0 | 7.0 | 0.00 | 0.07 | 0.02 | 50 | 1014.4 |
| 20260507205530 | 64 | 248 | 2.0 | 11.0 | 0.00 | 0.07 | 0.02 | 52 | 1014.4 |
| 20260507205029 | 64 | 267 | 2.0 | 11.0 | 0.00 | 0.07 | 0.02 | 49 | 1014.3 |
| 20260507204529 | 65 | 18 | 3.0 | 9.0 | 0.00 | 0.07 | 0.02 | 51 | 1014.4 |
| 20260507204032 | 64 | 265 | 1.0 | 5.0 | 0.00 | 0.07 | 0.02 | 53 | 1014.3 |
| 20260507203528 | 65 | 25 | 2.0 | 7.0 | 0.00 | 0.07 | 0.02 | 49 | 1014.3 |
| 20260507203028 | 64 | 262 | 1.0 | 8.0 | 0.00 | 0.07 | 0.02 | 59 | 1014.3 |
| 20260507202527 | 64 | 267 | 4.0 | 9.0 | 0.00 | 0.07 | 0.02 | 53 | 1014.3 |
| 20260507202027 | 65 | 56 | 4.0 | 9.0 | 0.00 | 0.07 | 0.02 | 52 | 1014.4 |
| 20260507201527 | 65 | 110 | 2.0 | 7.0 | 0.00 | 0.07 | 0.02 | 54 | 1014.4 |
| 20260507201027 | 64 | 243 | 3.0 | 7.0 | 0.00 | 0.07 | 0.02 | 51 | 1014.4 |
| 20260507200527 | 64 | 227 | 1.0 | 6.0 | 0.00 | 0.07 | 0.02 | 51 | 1014.4 |
| 20260507200028 | 65 | 84 | 2.0 | 8.0 | 0.00 | 0.07 | 0.02 | 51 | 1014.5 |
| 20260507195526 | 65 | 63 | 1.0 | 8.0 | 0.00 | 0.09 | 0.02 | 53 | 1014.4 |
| 20260507195026 | 65 | 69 | 2.0 | 9.0 | 0.00 | 0.09 | 0.02 | 54 | 1014.5 |
| 20260507194535 | 65 | 58 | 3.0 | 9.0 | 0.00 | 0.09 | 0.02 | 51 | 1014.6 |
| 20260507194024 | 64 | 163 | 3.0 | 9.0 | 0.00 | 0.09 | 0.02 | 51 | 1014.6 |
| 20260507193524 | 64 | 42 | 2.0 | 9.0 | 0.00 | 0.09 | 0.02 | 55 | 1014.6 |
| 20260507193030 | 64 | 351 | 2.0 | 9.0 | 0.00 | 0.09 | 0.02 | 56 | 1014.7 |
| 20260507192524 | 65 | 9 | 3.0 | 8.0 | 0.00 | 0.09 | 0.02 | 55 | 1014.7 |
| 20260507192026 | 64 | 298 | 1.0 | 8.0 | 0.00 | 0.09 | 0.02 | 52 | 1014.6 |
| 20260507191522 | 64 | 130 | 3.0 | 8.0 | 0.00 | 0.09 | 0.02 | 54 | 1014.6 |
| 20260507191021 | 64 | 47 | 4.0 | 10.0 | 0.00 | 0.09 | 0.02 | 54 | 1014.7 |
| 20260507190521 | 63 | 309 | 2.0 | 10.0 | 0.00 | 0.09 | 0.02 | 54 | 1014.8 |
| 20260507190020 | 63 | 322 | 3.0 | 8.0 | 0.00 | 0.09 | 0.02 | 57 | 1014.8 |
| 20260507185519 | 62 | 332 | 1.0 | 4.0 | 0.00 | 0.09 | 0.02 | 59 | 1014.7 |
| 20260507185022 | 63 | 360 | 0.0 | 3.0 | 0.00 | 0.09 | 0.02 | 61 | 1014.8 |
| 20260507184519 | 62 | 84 | 1.0 | 6.0 | 0.00 | 0.09 | 0.02 | 59 | 1014.8 |
| 20260507184019 | 62 | 142 | 1.0 | 11.0 | 0.00 | 0.09 | 0.02 | 54 | 1014.7 |
| 20260507183518 | 63 | 300 | 2.0 | 11.0 | 0.00 | 0.09 | 0.02 | 57 | 1014.7 |
| 20260507183022 | 63 | 319 | 2.0 | 8.0 | 0.00 | 0.09 | 0.02 | 61 | 1014.9 |
| 20260507182517 | 62 | 69 | 2.0 | 6.0 | 0.00 | 0.09 | 0.02 | 57 | 1015.0 |
| 20260507182016 | 62 | 110 | 2.0 | 9.0 | 0.00 | 0.09 | 0.02 | 58 | 1014.9 |
| 20260507181515 | 62 | 92 | 3.0 | 9.0 | 0.00 | 0.09 | 0.02 | 60 | 1015.0 |
| 20260507181015 | 62 | 32 | 1.0 | 4.0 | 0.00 | 0.09 | 0.02 | 59 | 1015.1 |
| 20260507180514 | 61 | 14 | 1.0 | 6.0 | 0.00 | 0.09 | 0.02 | 59 | 1015.3 |
| 20260507180016 | 61 | 321 | 2.0 | 6.0 | 0.00 | 0.09 | 0.02 | 58 | 1015.4 |
| 20260507175514 | 62 | 290 | 1.0 | 9.0 | 0.00 | 0.09 | 0.02 | 59 | 1015.3 |
| 20260507175014 | 60 | 90 | 3.0 | 9.0 | 0.00 | 0.09 | 0.02 | 62 | 1015.3 |
| 20260507174513 | 60 | 70 | 2.0 | 9.0 | 0.00 | 0.09 | 0.02 | 62 | 1015.4 |
| 20260507174013 | 62 | 55 | 4.0 | 9.0 | 0.00 | 0.09 | 0.02 | 60 | 1015.2 |
| 20260507173514 | 60 | 91 | 2.0 | 9.0 | 0.00 | 0.09 | 0.02 | 64 | 1015.4 |
| 20260507173011 | 60 | 350 | 2.0 | 5.0 | 0.00 | 0.09 | 0.02 | 60 | 1015.3 |
| 20260507172512 | 61 | 279 | 1.0 | 6.0 | 0.00 | 0.09 | 0.02 | 60 | 1015.4 |
| 20260507172011 | 59 | 335 | 2.0 | 6.0 | 0.00 | 0.09 | 0.02 | 61 | 1015.2 |
| 20260507171511 | 61 | 71 | 2.0 | 6.0 | 0.00 | 0.09 | 0.02 | 60 | 1015.4 |
| 20260507171011 | 60 | 56 | 2.0 | 6.0 | 0.00 | 0.09 | 0.02 | 60 | 1015.3 |
| 20260507170510 | 60 | 143 | 1.0 | 9.0 | 0.00 | 0.09 | 0.02 | 68 | 1015.1 |
| 20260507170012 | 60 | 84 | 2.0 | 9.0 | 0.00 | 0.09 | 0.02 | 60 | 1015.4 |
| 20260507165509 | 61 | 284 | 3.0 | 8.0 | 0.00 | 0.09 | 0.02 | 59 | 1015.5 |
| 20260507165009 | 60 | 61 | 2.0 | 8.0 | 0.00 | 0.09 | 0.02 | 68 | 1015.5 |
| 20260507164509 | 60 | 265 | 1.0 | 10.0 | 0.00 | 0.09 | 0.02 | 63 | 1015.6 |
| 20260507164008 | 62 | 89 | 2.0 | 10.0 | 0.00 | 0.09 | 0.02 | 59 | 1015.6 |
| 20260507163506 | 61 | 342 | 4.0 | 9.0 | 0.00 | 0.09 | 0.02 | 60 | 1015.7 |
| 20260507163005 | 61 | 108 | 1.0 | 12.0 | 0.00 | 0.09 | 0.02 | 60 | 1015.5 |
| 20260507162504 | 61 | 302 | 5.0 | 12.0 | 0.00 | 0.09 | 0.02 | 61 | 1015.5 |
| 20260507162004 | 60 | 57 | 2.0 | 10.0 | 0.00 | 0.09 | 0.02 | 63 | 1015.5 |
| 20260507161503 | 60 | 67 | 3.0 | 10.0 | 0.00 | 0.09 | 0.02 | 61 | 1015.6 |
| 20260507161002 | 60 | 112 | 3.0 | 9.0 | 0.00 | 0.09 | 0.02 | 61 | 1015.6 |
| 20260507160502 | 60 | 273 | 4.0 | 9.0 | 0.00 | 0.09 | 0.02 | 61 | 1015.7 |
| 20260507160101 | 60 | 61 | 3.0 | 9.0 | 0.00 | 0.09 | 0.02 | 64 | 1015.7 |
| 20260507155600 | 60 | 346 | 3.0 | 9.0 | 0.00 | 0.09 | 0.02 | 62 | 1015.8 |
| 20260507155101 | 60 | 331 | 2.0 | 8.0 | 0.00 | 0.09 | 0.02 | 64 | 1015.6 |
| 20260507154605 | 59 | 143 | 2.0 | 8.0 | 0.00 | 0.09 | 0.02 | 64 | 1015.7 |
| 20260507154055 | 59 | 94 | 2.0 | 8.0 | 0.00 | 0.09 | 0.02 | 64 | 1015.7 |
| 20260507153553 | 59 | 93 | 3.0 | 11.0 | 0.00 | 0.09 | 0.02 | 62 | 1015.6 |
| 20260507153052 | 59 | 243 | 3.0 | 13.0 | 0.00 | 0.09 | 0.02 | 66 | 1015.5 |
| 20260507152554 | 59 | 336 | 5.0 | 13.0 | 0.00 | 0.09 | 0.02 | 65 | 1015.5 |
| 20260507152050 | 59 | 54 | 3.0 | 10.0 | 0.00 | 0.09 | 0.02 | 65 | 1015.6 |
| 20260507151549 | 59 | 93 | 2.0 | 9.0 | 0.00 | 0.09 | 0.02 | 65 | 1015.5 |
| 20260507151047 | 59 | 17 | 1.0 | 5.0 | 0.00 | 0.09 | 0.02 | 73 | 1015.3 |
| 20260507150546 | 58 | 105 | 1.0 | 6.0 | 0.00 | 0.09 | 0.02 | 67 | 1015.4 |
| 20260507150046 | 58 | 80 | 2.0 | 7.0 | 0.00 | 0.09 | 0.02 | 69 | 1015.3 |
| 20260507145544 | 58 | 76 | 2.0 | 8.0 | 0.00 | 0.11 | 0.02 | 70 | 1015.3 |
| 20260507145043 | 57 | 9 | 3.0 | 8.0 | 0.00 | 0.11 | 0.02 | 70 | 1015.4 |
| 20260507144540 | 57 | 76 | 1.0 | 8.0 | 0.00 | 0.11 | 0.02 | 70 | 1015.3 |
| 20260507144040 | 57 | 96 | 3.0 | 9.0 | 0.00 | 0.11 | 0.02 | 70 | 1015.2 |
| 20260507143539 | 57 | 66 | 3.0 | 9.0 | 0.00 | 0.11 | 0.02 | 72 | 1015.1 |
| 20260507143039 | 57 | 42 | 2.0 | 8.0 | 0.00 | 0.11 | 0.02 | 72 | 1015.2 |
| 20260507142537 | 56 | 11 | 1.0 | 9.0 | 0.00 | 0.11 | 0.02 | 75 | 1015.3 |
| 20260507142036 | 56 | 15 | 2.0 | 8.0 | 0.00 | 0.11 | 0.02 | 74 | 1015.2 |
| 20260507141535 | 56 | 50 | 3.0 | 7.0 | 0.00 | 0.11 | 0.02 | 74 | 1015.1 |
| 20260507141035 | 56 | 69 | 1.0 | 11.0 | 0.00 | 0.11 | 0.02 | 76 | 1015.1 |
| 20260507140534 | 56 | 26 | 3.0 | 11.0 | 0.00 | 0.11 | 0.02 | 76 | 1015.0 |
| 20260507140032 | 55 | 98 | 3.0 | 6.0 | 0.00 | 0.11 | 0.02 | 77 | 1015.0 |
| 20260507135530 | 55 | 47 | 2.0 | 7.0 | 0.00 | 0.17 | 0.02 | 77 | 1014.8 |
| 20260507135032 | 55 | 273 | 2.0 | 6.0 | 0.00 | 0.17 | 0.02 | 79 | 1014.9 |
| 20260507134531 | 54 | 296 | 4.0 | 8.0 | 0.00 | 0.17 | 0.02 | 78 | 1014.8 |
| 20260507134026 | 54 | 152 | 2.0 | 6.0 | 0.00 | 0.17 | 0.02 | 84 | 1014.8 |
| 20260507133525 | 54 | 25 | 1.0 | 9.0 | 0.00 | 0.17 | 0.02 | 86 | 1014.7 |
| 20260507133023 | 53 | 348 | 4.0 | 9.0 | 0.00 | 0.17 | 0.02 | 86 | 1014.8 |
| 20260507132522 | 52 | 157 | 1.0 | 8.0 | 0.00 | 0.17 | 0.02 | 91 | 1014.9 |
| 20260507132021 | 51 | 49 | 1.0 | 8.0 | 0.00 | 0.17 | 0.02 | 91 | 1015.0 |
| 20260507131523 | 51 | 84 | 1.0 | 4.0 | 0.00 | 0.17 | 0.02 | 91 | 1014.9 |
| 20260507131020 | 51 | 59 | 1.0 | 4.0 | 0.00 | 0.17 | 0.02 | 91 | 1015.0 |
| 20260507130522 | 51 | 158 | 1.0 | 4.0 | 0.00 | 0.17 | 0.02 | 92 | 1014.9 |
| 20260507130030 | 51 | 311 | 0.0 | 5.0 | 0.00 | 0.17 | 0.02 | 93 | 1014.9 |
| 20260507125517 | 51 | 328 | 1.0 | 5.0 | 0.00 | 0.17 | 0.02 | 93 | 1014.9 |
| 20260507125022 | 50 | 76 | 1.0 | 5.0 | 0.00 | 0.17 | 0.02 | 93 | 1015.0 |
| 20260507124520 | 50 | 109 | 0.0 | 3.0 | 0.00 | 0.17 | 0.02 | 94 | 1014.9 |
| 20260507124013 | 50 | 5 | 1.0 | 3.0 | 0.00 | 0.17 | 0.02 | 94 | 1014.8 |
| 20260507123514 | 50 | 34 | 0.0 | 3.0 | 0.00 | 0.17 | 0.02 | 94 | 1014.8 |
| 20260507123014 | 50 | 360 | 1.0 | 4.0 | 0.00 | 0.17 | 0.02 | 95 | 1014.8 |
| 20260507122512 | 50 | 81 | 1.0 | 4.0 | 0.00 | 0.17 | 0.02 | 95 | 1014.8 |
| 20260507122012 | 50 | 79 | 1.0 | 4.0 | 0.00 | 0.17 | 0.02 | 95 | 1014.7 |
| 20260507121510 | 50 | 305 | 1.0 | 4.0 | 0.00 | 0.17 | 0.02 | 95 | 1014.8 |
| 20260507121010 | 50 | 311 | 1.0 | 3.0 | 0.00 | 0.17 | 0.02 | 96 | 1014.6 |
| 20260507120511 | 50 | 100 | 1.0 | 3.0 | 0.00 | 0.17 | 0.02 | 95 | 1014.6 |
| 20260507120013 | 50 | 333 | 1.0 | 3.0 | 0.00 | 0.17 | 0.02 | 96 | 1014.6 |
| 20260507115507 | 50 | 107 | 0.0 | 2.0 | 0.00 | 0.43 | 0.02 | 96 | 1014.5 |
| 20260507115005 | 50 | 107 | 0.0 | 2.0 | 0.00 | 0.43 | 0.02 | 96 | 1014.3 |
| 20260507114504 | 50 | 62 | 0.0 | 4.0 | 0.00 | 0.43 | 0.02 | 96 | 1014.3 |
| 20260507114009 | 50 | 61 | 0.0 | 4.0 | 0.00 | 0.43 | 0.02 | 96 | 1014.4 |
| 20260507113504 | 50 | 292 | 1.0 | 3.0 | 0.00 | 0.43 | 0.02 | 96 | 1014.4 |
| 20260507113003 | 50 | 339 | 0.0 | 6.0 | 0.00 | 0.43 | 0.02 | 96 | 1014.3 |
| 20260507112503 | 50 | 325 | 0.0 | 6.0 | 0.00 | 0.43 | 0.02 | 96 | 1014.0 |
| 20260507112005 | 50 | 44 | 1.0 | 3.0 | 0.00 | 0.43 | 0.02 | 96 | 1013.9 |
| 20260507111503 | 50 | 327 | 0.0 | 3.0 | 0.00 | 0.43 | 0.02 | 96 | 1013.9 |
| 20260507111003 | 50 | 63 | 0.0 | 3.0 | 0.00 | 0.43 | 0.02 | 96 | 1013.6 |
| 20260507110502 | 50 | 63 | 1.0 | 3.0 | 0.00 | 0.43 | 0.02 | 96 | 1013.7 |
| 20260507105559 | 50 | 56 | 0.0 | 1.0 | 0.00 | 0.50 | 0.02 | 96 | 1013.6 |
| 20260507105059 | 50 | 56 | 0.0 | 2.0 | 0.00 | 0.50 | 0.02 | 96 | 1013.7 |
| 20260507104558 | 50 | 56 | 0.0 | 2.0 | 0.00 | 0.50 | 0.02 | 96 | 1013.6 |
| 20260507104058 | 50 | 54 | 0.0 | 3.0 | 0.00 | 0.50 | 0.02 | 96 | 1013.5 |
| 20260507103558 | 50 | 53 | 1.0 | 3.0 | 0.00 | 0.50 | 0.02 | 96 | 1013.5 |
| 20260507103058 | 50 | 321 | 0.0 | 3.0 | 0.00 | 0.50 | 0.02 | 96 | 1013.5 |
| 20260507102557 | 50 | 321 | 0.0 | 3.0 | 0.00 | 0.50 | 0.02 | 96 | 1013.6 |
| 20260507102059 | 50 | 36 | 0.0 | 2.0 | 0.00 | 0.50 | 0.02 | 96 | 1013.6 |
| 20260507101558 | 50 | 36 | 0.0 | 3.0 | 0.00 | 0.50 | 0.02 | 96 | 1013.6 |
| 20260507101056 | 51 | 36 | 0.0 | 3.0 | 0.00 | 0.50 | 0.02 | 96 | 1013.3 |
| 20260507100555 | 51 | 27 | 0.0 | 3.0 | 0.00 | 0.50 | 0.02 | 96 | 1013.2 |
| 20260507100056 | 51 | 46 | 0.0 | 2.0 | 0.00 | 0.50 | 0.02 | 96 | 1013.4 |
| 20260507095556 | 51 | 46 | 0.0 | 3.0 | 0.00 | 0.51 | 0.02 | 96 | 1013.6 |
| 20260507095055 | 51 | 46 | 0.0 | 3.0 | 0.00 | 0.51 | 0.02 | 96 | 1013.5 |
| 20260507094554 | 51 | 37 | 0.0 | 2.0 | 0.00 | 0.51 | 0.02 | 96 | 1013.6 |
| 20260507094053 | 51 | 37 | 0.0 | 3.0 | 0.00 | 0.51 | 0.02 | 96 | 1013.4 |
| 20260507093556 | 51 | 37 | 0.0 | 3.0 | 0.00 | 0.51 | 0.02 | 96 | 1013.5 |
| 20260507093055 | 51 | 350 | 0.0 | 3.0 | 0.00 | 0.51 | 0.02 | 96 | 1013.5 |
| 20260507092553 | 51 | 351 | 0.0 | 3.0 | 0.00 | 0.51 | 0.02 | 96 | 1013.6 |
| 20260507092052 | 51 | 40 | 0.0 | 3.0 | 0.00 | 0.51 | 0.02 | 97 | 1013.5 |
| 20260507091552 | 51 | 40 | 1.0 | 4.0 | 0.00 | 0.51 | 0.02 | 97 | 1013.4 |
| 20260507091054 | 51 | 355 | 1.0 | 4.0 | 0.00 | 0.51 | 0.02 | 96 | 1013.4 |
| 20260507090551 | 51 | 324 | 0.0 | 2.0 | 0.00 | 0.51 | 0.02 | 97 | 1013.1 |
| 20260507090051 | 51 | 323 | 0.0 | 2.0 | 0.00 | 0.51 | 0.02 | 97 | 1013.3 |
| 20260507085551 | 51 | 323 | 1.0 | 3.0 | 0.00 | 0.51 | 0.02 | 97 | 1013.2 |
| 20260507085051 | 51 | 132 | 0.0 | 2.0 | 0.00 | 0.51 | 0.02 | 97 | 1013.2 |
| 20260507084551 | 52 | 281 | 0.0 | 2.0 | 0.00 | 0.51 | 0.02 | 97 | 1013.5 |
| 20260507084049 | 52 | 281 | 1.0 | 2.0 | 0.00 | 0.51 | 0.02 | 97 | 1013.7 |
| 20260507083549 | 52 | 271 | 0.0 | 3.0 | 0.00 | 0.51 | 0.02 | 97 | 1013.7 |
| 20260507083049 | 52 | 271 | 1.0 | 3.0 | 0.00 | 0.51 | 0.02 | 97 | 1013.7 |
| 20260507082549 | 52 | 23 | 1.0 | 3.0 | 0.01 | 0.51 | 0.02 | 97 | 1013.7 |
| 20260507082047 | 52 | 81 | 1.0 | 3.0 | 0.01 | 0.51 | 0.02 | 97 | 1013.6 |
| 20260507081547 | 52 | 85 | 0.0 | 3.0 | 0.01 | 0.51 | 0.02 | 97 | 1013.6 |
| 20260507081047 | 52 | 233 | 0.0 | 3.0 | 0.01 | 0.51 | 0.02 | 97 | 1013.6 |
| 20260507080547 | 52 | 344 | 0.0 | 2.0 | 0.01 | 0.51 | 0.02 | 97 | 1013.4 |
| 20260507080049 | 52 | 344 | 1.0 | 2.0 | 0.01 | 0.51 | 0.02 | 97 | 1013.4 |
| 20260507075546 | 52 | 344 | 0.0 | 2.0 | 0.01 | 0.51 | 0.02 | 97 | 1013.6 |
| 20260507075049 | 52 | 298 | 0.0 | 1.0 | 0.01 | 0.51 | 0.02 | 97 | 1013.5 |
| 20260507074546 | 52 | 298 | 0.0 | 1.0 | 0.01 | 0.51 | 0.02 | 97 | 1013.5 |
| 20260507074046 | 52 | 298 | 0.0 | 1.0 | 0.01 | 0.51 | 0.02 | 97 | 1013.6 |
| 20260507073547 | 52 | 297 | 0.0 | 2.0 | 0.01 | 0.51 | 0.02 | 97 | 1013.5 |
| 20260507073045 | 52 | 297 | 0.0 | 2.0 | 0.01 | 0.51 | 0.02 | 97 | 1013.3 |
| 20260507072546 | 52 | 297 | 1.0 | 2.0 | 0.00 | 0.50 | 0.01 | 97 | 1014.0 |
| 20260507072044 | 52 | 294 | 0.0 | 1.0 | 0.00 | 0.50 | 0.01 | 97 | 1014.0 |
| 20260507071602 | 52 | 294 | 0.0 | 2.0 | 0.00 | 0.50 | 0.01 | 96 | 1013.5 |
| 20260507071044 | 52 | 294 | 0.0 | 2.0 | 0.00 | 0.50 | 0.01 | 97 | 1013.5 |
| 20260507070544 | 52 | 294 | 0.0 | 2.0 | 0.00 | 0.50 | 0.01 | 97 | 1013.5 |
| 20260507070044 | 52 | 294 | 0.0 | 2.0 | 0.00 | 0.50 | 0.01 | 97 | 1013.3 |
| 20260507065545 | 52 | 294 | 0.0 | 2.0 | 0.00 | 0.50 | 0.01 | 97 | 1013.7 |
| 20260507065043 | 52 | 294 | 0.0 | 3.0 | 0.00 | 0.50 | 0.01 | 97 | 1013.7 |
| 20260507064543 | 52 | 289 | 0.0 | 3.0 | 0.00 | 0.50 | 0.01 | 97 | 1013.4 |
| 20260507064042 | 52 | 60 | 0.0 | 4.0 | 0.00 | 0.50 | 0.01 | 97 | 1013.3 |
| 20260507063542 | 52 | 306 | 0.0 | 4.0 | 0.00 | 0.50 | 0.01 | 96 | 1013.2 |
| 20260507063045 | 52 | 50 | 0.0 | 2.0 | 0.00 | 0.50 | 0.01 | 97 | 1013.2 |
| 20260507062540 | 52 | 53 | 0.0 | 2.0 | 0.01 | 0.50 | 0.01 | 97 | 1013.3 |
| 20260507062041 | 52 | 58 | 0.0 | 2.0 | 0.01 | 0.50 | 0.01 | 97 | 1013.9 |
| 20260507061541 | 52 | 58 | 0.0 | 2.0 | 0.01 | 0.50 | 0.01 | 97 | 1013.6 |
| 20260507061040 | 52 | 57 | 0.0 | 2.0 | 0.01 | 0.50 | 0.01 | 97 | 1013.8 |
| 20260507060542 | 52 | 57 | 0.0 | 3.0 | 0.01 | 0.50 | 0.01 | 97 | 1013.3 |
| 20260507060039 | 52 | 59 | 1.0 | 3.0 | 0.01 | 0.50 | 0.01 | 96 | 1013.4 |
| 20260507055538 | 52 | 355 | 0.0 | 1.0 | 0.01 | 0.50 | 0.01 | 97 | 1013.6 |
| 20260507055037 | 52 | 355 | 0.0 | 2.0 | 0.01 | 0.50 | 0.01 | 96 | 1013.8 |
| 20260507054536 | 52 | 349 | 0.0 | 2.0 | 0.01 | 0.50 | 0.01 | 96 | 1013.6 |
| 20260507054035 | 52 | 349 | 0.0 | 2.0 | 0.01 | 0.50 | 0.01 | 96 | 1014.0 |
| 20260507053538 | 53 | 349 | 0.0 | 2.0 | 0.01 | 0.50 | 0.01 | 97 | 1014.2 |
| 20260507053102 | 52 | 80 | 0.0 | 2.0 | 0.01 | 0.50 | 0.01 | 96 | 1014.2 |
| 20260507052535 | 52 | 80 | 0.0 | 2.0 | 0.00 | 0.49 | 0.00 | 96 | 1014.4 |
| 20260507052033 | 53 | 80 | 0.0 | 1.0 | 0.00 | 0.49 | 0.00 | 96 | 1014.6 |
| 20260507051541 | 53 | 80 | 0.0 | 2.0 | 0.00 | 0.49 | 0.00 | 97 | 1014.6 |
| 20260507051032 | 53 | 80 | 0.0 | 1.0 | 0.00 | 0.49 | 0.00 | 97 | 1014.5 |
| 20260507050532 | 53 | 80 | 0.0 | 1.0 | 0.00 | 0.49 | 0.00 | 97 | 1014.7 |